Buoy 52912

sailwx.info

Track history (hours):
 
Tides and Currents Weather Stations Pressure Air Temp Water Temp Dewpoint Dewpoint Depression Visibility Wind Speed Wind Dir Waves Ship Positions

Drifting buoy 52912

Last reported at 2014-Nov-24 11:00 UTC. Time now 2014-Nov-24 15:14 UTC.
Position N 09°56' E 159°11'.

Water temperature 29.7 ° C

Date/timePositionNaut miles runAvg speedWind from/ knotsBaromVisibWave heightAir tempDewpointWater temp
2014-Nov-24 11:00N 09°56' E 159°11'2 1.8 29.7
2014-Nov-24 10:00N 09°56' E 159°13'0 0.0 29.7
2014-Nov-24 09:00N 09°56' E 159°13'1 0.6 29.7
2014-Nov-24 08:00N 09°56' E 159°13'0 0.4 29.7
2014-Nov-24 07:00N 09°56' E 159°13'0 0.4 29.7
2014-Nov-24 06:00N 09°56' E 159°13'1 0.4 29.7
2014-Nov-24 03:00N 09°55' E 159°14'0 0.2 29.7
2014-Nov-24 02:00N 09°55' E 159°15'0 0.4 29.7
2014-Nov-24 01:00N 09°55' E 159°15'0 0.0 29.7
2014-Nov-24 00:00N 09°55' E 159°15'1 0.3 29.7
2014-Nov-23 20:00N 09°54' E 159°15'1 0.8 29.7
2014-Nov-23 19:00N 09°55' E 159°16'1 0.4 29.7
2014-Nov-23 16:00N 09°53' E 159°16'1 1.1 29.7
2014-Nov-23 15:00N 09°52' E 159°16'2 0.5 29.7
2014-Nov-23 11:00N 09°50' E 159°17'1 0.6 29.7
2014-Nov-23 10:00N 09°50' E 159°16'1 0.4 29.7
2014-Nov-23 07:00N 09°49' E 159°17'1 1.3 29.7
2014-Nov-23 06:00N 09°48' E 159°16'1 0.3 29.8
2014-Nov-23 02:00N 09°47' E 159°17'3 1.0 29.8
2014-Nov-22 23:00N 09°44' E 159°18'0 0.2 29.7
2014-Nov-22 22:00N 09°44' E 159°18'2 0.8 29.7
2014-Nov-22 19:00N 09°42' E 159°19'1 0.5 29.7
2014-Nov-22 18:00N 09°42' E 159°20'3 1.5 29.7
2014-Nov-22 16:00N 09°39' E 159°20'0 0.0 29.7
2014-Nov-22 15:00N 09°39' E 159°20'0 0.0 29.7
2014-Nov-22 14:00N 09°39' E 159°20'3 1.7 29.8
2014-Nov-22 12:00N 09°36' E 159°22'0 0.0 29.8
2014-Nov-22 11:00N 09°36' E 159°22'1 0.6 29.8
2014-Nov-22 10:00N 09°35' E 159°22'5 1.1 29.8
2014-Nov-22 05:00N 09°32' E 159°26'2 1.7 29.8
2014-Nov-22 04:00N 09°31' E 159°28'1 0.8 29.8
2014-Nov-22 03:00N 09°30' E 159°28'0 0.3 29.8
2014-Nov-22 02:00N 09°30' E 159°28'2 1.8 29.8
2014-Nov-22 01:00N 09°29' E 159°30'2 1.6 29.8
2014-Nov-22 00:00N 09°29' E 159°31'3 0.7 29.8
2014-Nov-21 19:00N 09°26' E 159°34'2 0.5 29.8
2014-Nov-21 15:00N 09°25' E 159°35'0 0.0 29.9
2014-Nov-21 14:00N 09°25' E 159°35'3 0.9 29.9
2014-Nov-21 11:00N 09°24' E 159°38'1 0.8 29.9
2014-Nov-21 10:00N 09°25' E 159°38'3 1.3 29.9
2014-Nov-21 08:00N 09°23' E 159°40'0 0.0 29.9
2014-Nov-21 06:00N 09°23' E 159°40'1 1.3 30.0
2014-Nov-21 05:00N 09°22' E 159°41'0 0.0 30.0
2014-Nov-21 04:00N 09°22' E 159°41'1 1.3 29.9
2014-Nov-21 03:00N 09°22' E 159°43'0 0.0 29.9
2014-Nov-21 02:00N 09°22' E 159°43'1 0.3 30.0
2014-Nov-20 23:00N 09°22' E 159°43'1 1.0 29.9
2014-Nov-20 22:00N 09°21' E 159°44'0 0.2 29.9
2014-Nov-20 20:00N 09°22' E 159°44'1 0.6 29.9
2014-Nov-20 19:00N 09°21' E 159°44'1 0.6 29.9
2014-Nov-20 18:00N 09°21' E 159°44'2 0.5 29.9
2014-Nov-20 15:00N 09°20' E 159°45'0 0.0 29.9
2014-Nov-20 14:00N 09°20' E 159°45'2 0.5 29.9
2014-Nov-20 11:00N 09°19' E 159°47'1 0.6 29.9
2014-Nov-20 10:00N 09°19' E 159°47'3 0.7 29.9
2014-Nov-20 06:00N 09°16' E 159°49'1 1.3 30.0
2014-Nov-20 05:00N 09°16' E 159°50'0 0.0 30.1
2014-Nov-20 04:00N 09°16' E 159°50'1 1.1 30.1
2014-Nov-20 03:00N 09°15' E 159°51'0 0.3 30.2
2014-Nov-20 02:00N 09°15' E 159°51'1 1.1 30.2
2014-Nov-20 01:00N 09°16' E 159°52'1 0.6 30.2
2014-Nov-19 23:00N 09°15' E 159°53'0 0.1 30.0
2014-Nov-19 22:00N 09°15' E 159°53'1 0.2 29.9
2014-Nov-19 19:00N 09°14' E 159°53'1 0.4 29.9
2014-Nov-19 17:00N 09°14' E 159°53'2 0.8 29.9
2014-Nov-19 15:00N 09°13' E 159°55'3 0.7 29.9
2014-Nov-19 11:00N 09°11' E 159°57'2 0.8 30.0
2014-Nov-19 09:00N 09°10' E 159°58'1 0.3 30.0
2014-Nov-19 07:00N 09°10' E 159°59'0 0.0 30.1
2014-Nov-19 06:00N 09°10' E 159°59'2 0.5 30.2
2014-Nov-19 02:00N 09°09' E 160°01'4 1.2 30.2
2014-Nov-18 23:00N 09°10' E 160°04'0 0.0 29.9
2014-Nov-18 21:00N 09°10' E 160°04'1 0.4 29.9
2014-Nov-18 19:00N 09°09' E 160°05'0 0.2 29.9
2014-Nov-18 18:00N 09°09' E 160°05'0 0.0 29.9
2014-Nov-18 17:00N 09°09' E 160°05'3 1.3 29.9
2014-Nov-18 15:00N 09°07' E 160°06'2 0.4 29.9
2014-Nov-18 11:00N 09°08' E 160°07'2 0.6 30.0
2014-Nov-18 08:00N 09°07' E 160°08'1 0.8 30.0
2014-Nov-18 07:00N 09°06' E 160°09'0 0.0 30.1
2014-Nov-18 06:00N 09°06' E 160°09'2 0.6 30.1
2014-Nov-18 03:00N 09°04' E 160°10'0 0.3 30.2
2014-Nov-18 02:00N 09°04' E 160°09'3 0.5 30.2
2014-Nov-17 20:00N 09°03' E 160°12'1 0.3 29.9
2014-Nov-17 18:00N 09°02' E 160°12'0 0.0 29.9
2014-Nov-17 17:00N 09°02' E 160°12'2 1.7 29.9
2014-Nov-17 16:00N 09°02' E 160°14'1 0.6 29.9
2014-Nov-17 15:00N 09°01' E 160°13'2 1.9 29.9
2014-Nov-17 14:00N 08°59' E 160°14'1 0.1 29.9
2014-Nov-17 10:00N 08°59' E 160°14'1 0.8 30.0
2014-Nov-17 09:00N 08°58' E 160°14'5 1.0 30.0
2014-Nov-17 04:00N 08°56' E 160°19'0 0.0 30.2
2014-Nov-17 03:00N 08°56' E 160°19'0 0.0 30.2
2014-Nov-17 02:00N 08°56' E 160°19'3 0.6 30.2
2014-Nov-16 22:00N 08°55' E 160°21'3 0.9 29.9
2014-Nov-16 19:00N 08°53' E 160°23'0 0.0 29.9
2014-Nov-16 18:00N 08°53' E 160°23'2 0.9 29.9
2014-Nov-16 16:00N 08°53' E 160°25'1 1.3 29.9
2014-Nov-16 15:00N 08°52' E 160°26'1 0.3 29.9
2014-Nov-16 11:00N 08°52' E 160°28'1 1.2 30.0
2014-Nov-16 10:00N 08°52' E 160°29'2 0.6 30.1
2014-Nov-16 06:00N 08°52' E 160°31'0 0.0 30.3
2014-Nov-16 05:00N 08°52' E 160°31'1 1.2 30.4
2014-Nov-16 04:00N 08°52' E 160°32'0 0.1 30.4
2014-Nov-16 03:00N 08°52' E 160°32'0 0.1 30.3
2014-Nov-16 02:00N 08°52' E 160°32'2 0.3 30.3
2014-Nov-15 19:00N 08°52' E 160°35'2 0.9 29.9
2014-Nov-15 17:00N 08°52' E 160°37'0 0.0 29.9
2014-Nov-15 16:00N 08°52' E 160°37'1 0.6 29.9
2014-Nov-15 15:00N 08°52' E 160°37'1 1.3 29.9
2014-Nov-15 14:00N 08°51' E 160°38'0 0.0 29.7
2014-Nov-15 11:00N 08°51' E 160°38'1 0.6 29.8
2014-Nov-15 10:00N 08°51' E 160°39'1 1.3 30.2
2014-Nov-15 09:00N 08°50' E 160°40'0 0.0 30.2
2014-Nov-15 07:00N 08°50' E 160°40'0 0.0 30.4
2014-Nov-15 05:00N 08°50' E 160°40'1 0.3 30.6
2014-Nov-15 03:00N 08°50' E 160°41'0 0.2 -0.1
2014-Nov-15 02:00N 08°50' E 160°41'2 0.6 30.5
2014-Nov-14 22:00N 08°49' E 160°43'0 0.1 29.9
2014-Nov-14 20:00N 08°49' E 160°43'1 0.6 29.9
2014-Nov-14 19:00N 08°50' E 160°43'0 0.0 29.9
2014-Nov-14 18:00N 08°50' E 160°43'1 0.4 29.9
2014-Nov-14 16:00N 08°49' E 160°44'0 0.1 29.9
2014-Nov-14 15:00N 08°49' E 160°44'1 0.3 29.9
2014-Nov-14 11:00N 08°49' E 160°45'   30.1
Track history (hours):
 
Tides and Currents Weather Stations Pressure Air Temp Water Temp Dewpoint Dewpoint Depression Visibility Wind Speed Wind Dir Waves Ship Positions

Drifting buoy 52912

Last reported at 2014-Nov-24 11:00 UTC. Time now 2014-Nov-24 15:14 UTC.
Position N 09°56' E 159°11'.

Water temperature 29.7 ° C

Date/timePositionNaut miles runAvg speedWind from/ knotsBaromVisibWave heightAir tempDewpointWater temp
2014-Nov-24 11:00N 09°56' E 159°11'2 1.8 29.7
2014-Nov-24 10:00N 09°56' E 159°13'0 0.0 29.7
2014-Nov-24 09:00N 09°56' E 159°13'1 0.6 29.7
2014-Nov-24 08:00N 09°56' E 159°13'0 0.4 29.7
2014-Nov-24 07:00N 09°56' E 159°13'0 0.4 29.7
2014-Nov-24 06:00N 09°56' E 159°13'1 0.4 29.7
2014-Nov-24 03:00N 09°55' E 159°14'0 0.2 29.7
2014-Nov-24 02:00N 09°55' E 159°15'0 0.4 29.7
2014-Nov-24 01:00N 09°55' E 159°15'0 0.0 29.7
2014-Nov-24 00:00N 09°55' E 159°15'1 0.3 29.7
2014-Nov-23 20:00N 09°54' E 159°15'1 0.8 29.7
2014-Nov-23 19:00N 09°55' E 159°16'1 0.4 29.7
2014-Nov-23 16:00N 09°53' E 159°16'1 1.1 29.7
2014-Nov-23 15:00N 09°52' E 159°16'2 0.5 29.7
2014-Nov-23 11:00N 09°50' E 159°17'1 0.6 29.7
2014-Nov-23 10:00N 09°50' E 159°16'1 0.4 29.7
2014-Nov-23 07:00N 09°49' E 159°17'1 1.3 29.7
2014-Nov-23 06:00N 09°48' E 159°16'1 0.3 29.8
2014-Nov-23 02:00N 09°47' E 159°17'3 1.0 29.8
2014-Nov-22 23:00N 09°44' E 159°18'0 0.2 29.7
2014-Nov-22 22:00N 09°44' E 159°18'2 0.8 29.7
2014-Nov-22 19:00N 09°42' E 159°19'1 0.5 29.7
2014-Nov-22 18:00N 09°42' E 159°20'3 1.5 29.7
2014-Nov-22 16:00N 09°39' E 159°20'0 0.0 29.7
2014-Nov-22 15:00N 09°39' E 159°20'0 0.0 29.7
2014-Nov-22 14:00N 09°39' E 159°20'3 1.7 29.8
2014-Nov-22 12:00N 09°36' E 159°22'0 0.0 29.8
2014-Nov-22 11:00N 09°36' E 159°22'1 0.6 29.8
2014-Nov-22 10:00N 09°35' E 159°22'5 1.1 29.8
2014-Nov-22 05:00N 09°32' E 159°26'2 1.7 29.8
2014-Nov-22 04:00N 09°31' E 159°28'1 0.8 29.8
2014-Nov-22 03:00N 09°30' E 159°28'0 0.3 29.8
2014-Nov-22 02:00N 09°30' E 159°28'2 1.8 29.8
2014-Nov-22 01:00N 09°29' E 159°30'2 1.6 29.8
2014-Nov-22 00:00N 09°29' E 159°31'3 0.7 29.8
2014-Nov-21 19:00N 09°26' E 159°34'2 0.5 29.8
2014-Nov-21 15:00N 09°25' E 159°35'0 0.0 29.9
2014-Nov-21 14:00N 09°25' E 159°35'3 0.9 29.9
2014-Nov-21 11:00N 09°24' E 159°38'1 0.8 29.9
2014-Nov-21 10:00N 09°25' E 159°38'3 1.3 29.9
2014-Nov-21 08:00N 09°23' E 159°40'0 0.0 29.9
2014-Nov-21 06:00N 09°23' E 159°40'1 1.3 30.0
2014-Nov-21 05:00N 09°22' E 159°41'0 0.0 30.0
2014-Nov-21 04:00N 09°22' E 159°41'1 1.3 29.9
2014-Nov-21 03:00N 09°22' E 159°43'0 0.0 29.9
2014-Nov-21 02:00N 09°22' E 159°43'1 0.3 30.0
2014-Nov-20 23:00N 09°22' E 159°43'1 1.0 29.9
2014-Nov-20 22:00N 09°21' E 159°44'0 0.2 29.9
2014-Nov-20 20:00N 09°22' E 159°44'1 0.6 29.9
2014-Nov-20 19:00N 09°21' E 159°44'1 0.6 29.9
2014-Nov-20 18:00N 09°21' E 159°44'2 0.5 29.9
2014-Nov-20 15:00N 09°20' E 159°45'0 0.0 29.9
2014-Nov-20 14:00N 09°20' E 159°45'2 0.5 29.9
2014-Nov-20 11:00N 09°19' E 159°47'1 0.6 29.9
2014-Nov-20 10:00N 09°19' E 159°47'3 0.7 29.9
2014-Nov-20 06:00N 09°16' E 159°49'1 1.3 30.0
2014-Nov-20 05:00N 09°16' E 159°50'0 0.0 30.1
2014-Nov-20 04:00N 09°16' E 159°50'1 1.1 30.1
2014-Nov-20 03:00N 09°15' E 159°51'0 0.3 30.2
2014-Nov-20 02:00N 09°15' E 159°51'1 1.1 30.2
2014-Nov-20 01:00N 09°16' E 159°52'1 0.6 30.2
2014-Nov-19 23:00N 09°15' E 159°53'0 0.1 30.0
2014-Nov-19 22:00N 09°15' E 159°53'1 0.2 29.9
2014-Nov-19 19:00N 09°14' E 159°53'1 0.4 29.9
2014-Nov-19 17:00N 09°14' E 159°53'2 0.8 29.9
2014-Nov-19 15:00N 09°13' E 159°55'3 0.7 29.9
2014-Nov-19 11:00N 09°11' E 159°57'2 0.8 30.0
2014-Nov-19 09:00N 09°10' E 159°58'1 0.3 30.0
2014-Nov-19 07:00N 09°10' E 159°59'0 0.0 30.1
2014-Nov-19 06:00N 09°10' E 159°59'2 0.5 30.2
2014-Nov-19 02:00N 09°09' E 160°01'4 1.2 30.2
2014-Nov-18 23:00N 09°10' E 160°04'0 0.0 29.9
2014-Nov-18 21:00N 09°10' E 160°04'1 0.4 29.9
2014-Nov-18 19:00N 09°09' E 160°05'0 0.2 29.9
2014-Nov-18 18:00N 09°09' E 160°05'0 0.0 29.9
2014-Nov-18 17:00N 09°09' E 160°05'3 1.3 29.9
2014-Nov-18 15:00N 09°07' E 160°06'2 0.4 29.9
2014-Nov-18 11:00N 09°08' E 160°07'2 0.6 30.0
2014-Nov-18 08:00N 09°07' E 160°08'1 0.8 30.0
2014-Nov-18 07:00N 09°06' E 160°09'0 0.0 30.1
2014-Nov-18 06:00N 09°06' E 160°09'2 0.6 30.1
2014-Nov-18 03:00N 09°04' E 160°10'0 0.3 30.2
2014-Nov-18 02:00N 09°04' E 160°09'3 0.5 30.2
2014-Nov-17 20:00N 09°03' E 160°12'1 0.3 29.9
2014-Nov-17 18:00N 09°02' E 160°12'0 0.0 29.9
2014-Nov-17 17:00N 09°02' E 160°12'2 1.7 29.9
2014-Nov-17 16:00N 09°02' E 160°14'1 0.6 29.9
2014-Nov-17 15:00N 09°01' E 160°13'2 1.9 29.9
2014-Nov-17 14:00N 08°59' E 160°14'1 0.1 29.9
2014-Nov-17 10:00N 08°59' E 160°14'1 0.8 30.0
2014-Nov-17 09:00N 08°58' E 160°14'5 1.0 30.0
2014-Nov-17 04:00N 08°56' E 160°19'0 0.0 30.2
2014-Nov-17 03:00N 08°56' E 160°19'0 0.0 30.2
2014-Nov-17 02:00N 08°56' E 160°19'3 0.6 30.2
2014-Nov-16 22:00N 08°55' E 160°21'3 0.9 29.9
2014-Nov-16 19:00N 08°53' E 160°23'0 0.0 29.9
2014-Nov-16 18:00N 08°53' E 160°23'2 0.9 29.9
2014-Nov-16 16:00N 08°53' E 160°25'1 1.3 29.9
2014-Nov-16 15:00N 08°52' E 160°26'1 0.3 29.9
2014-Nov-16 11:00N 08°52' E 160°28'1 1.2 30.0
2014-Nov-16 10:00N 08°52' E 160°29'2 0.6 30.1
2014-Nov-16 06:00N 08°52' E 160°31'0 0.0 30.3
2014-Nov-16 05:00N 08°52' E 160°31'1 1.2 30.4
2014-Nov-16 04:00N 08°52' E 160°32'0 0.1 30.4
2014-Nov-16 03:00N 08°52' E 160°32'0 0.1 30.3
2014-Nov-16 02:00N 08°52' E 160°32'2 0.3 30.3
2014-Nov-15 19:00N 08°52' E 160°35'2 0.9 29.9
2014-Nov-15 17:00N 08°52' E 160°37'0 0.0 29.9
2014-Nov-15 16:00N 08°52' E 160°37'1 0.6 29.9
2014-Nov-15 15:00N 08°52' E 160°37'1 1.3 29.9
2014-Nov-15 14:00N 08°51' E 160°38'0 0.0 29.7
2014-Nov-15 11:00N 08°51' E 160°38'1 0.6 29.8
2014-Nov-15 10:00N 08°51' E 160°39'1 1.3 30.2
2014-Nov-15 09:00N 08°50' E 160°40'0 0.0 30.2
2014-Nov-15 07:00N 08°50' E 160°40'0 0.0 30.4
2014-Nov-15 05:00N 08°50' E 160°40'1 0.3 30.6
2014-Nov-15 03:00N 08°50' E 160°41'0 0.2 -0.1
2014-Nov-15 02:00N 08°50' E 160°41'2 0.6 30.5
2014-Nov-14 22:00N 08°49' E 160°43'0 0.1 29.9
2014-Nov-14 20:00N 08°49' E 160°43'1 0.6 29.9
2014-Nov-14 19:00N 08°50' E 160°43'0 0.0 29.9
2014-Nov-14 18:00N 08°50' E 160°43'1 0.4 29.9
2014-Nov-14 16:00N 08°49' E 160°44'0 0.1 29.9
2014-Nov-14 15:00N 08°49' E 160°44'1 0.3 29.9
2014-Nov-14 11:00N 08°49' E 160°45'   30.1

Dump ship's entire track history